FW9403 Weather Reports


Display with metric or nautical units.
time (UTC)temp
F
wind
direction
speed
MPH
gust
MPH
rain 1hr
in
rain 24hr
in
rain mn
in
humidity
%
barometer
mb
20260510192208 85 316 1.0 2.0 0.00 0.01 0.01 72 1016.4
20260510191704 84 317 1.0 3.0 0.00 0.01 0.01 76 1016.5
20260510191201 84 290 2.0 8.0 0.00 0.01 0.01 73 1016.5
20260510190658 83 316 1.0 3.0 0.00 0.01 0.01 77 1016.7
20260510190155 84 159 3.0 8.0 0.00 0.01 0.01 75 1016.8
20260510185652 85 203 3.0 5.0 0.00 0.01 0.01 75 1016.7
20260510185150 84 290 0.0 3.0 0.00 0.01 0.01 78 1016.9
20260510184646 84 323 3.0 5.0 0.00 0.01 0.01 75 1017.1
20260510184142 86 191 5.0 8.0 0.00 0.01 0.01 72 1016.9
20260510183638 84 13 1.0 2.0 0.00 0.01 0.01 70 1017.2
20260510183133 84 167 3.0 3.0 0.00 0.01 0.01 71 1017.3
20260510182630 84 321 3.0 3.0 0.00 0.01 0.01 71 1017.2
20260510182126 85 339 0.0 2.0 0.00 0.01 0.01 70 1017.4
20260510181623 85 285 0.0 1.0 0.00 0.01 0.01 69 1017.3
20260510181119 85 0 1.0 3.0 0.00 0.01 0.01 67 1017.6
20260510180615 84 347 0.0 2.0 0.00 0.01 0.01 73 1017.6
20260510180114 83 335 1.0 2.0 0.00 0.01 0.01 73 1017.7
20260510175609 82 343 1.0 2.0 0.00 0.01 0.01 75 1017.5
20260510175105 82 347 0.0 2.0 0.00 0.01 0.01 75 1017.6
20260510174603 82 343 2.0 2.0 0.00 0.01 0.01 73 1017.7
20260510174100 82 340 0.0 2.0 0.00 0.01 0.01 73 1017.5
20260510173555 82 315 2.0 3.0 0.00 0.01 0.01 72 1017.7
20260510173052 83 343 0.0 2.0 0.00 0.01 0.01 73 1017.7
20260510172548 83 351 0.0 1.0 0.00 0.01 0.01 73 1017.7
20260510172044 83 353 0.0 5.0 0.00 0.01 0.01 72 1017.8
20260510171541 83 351 1.0 3.0 0.00 0.01 0.01 73 1017.9
20260510171038 84 328 0.0 2.0 0.00 0.01 0.01 72 1018.0
20260510170534 83 81 1.0 2.0 0.00 0.01 0.01 71 1017.9
20260510170031 82 354 1.0 5.0 0.00 0.01 0.01 76 1017.7
20260510165527 82 353 1.0 2.0 0.00 0.01 0.01 73 1018.1
20260510165023 82 343 0.0 2.0 0.00 0.01 0.01 75 1018.0
20260510164521 82 359 1.0 5.0 0.00 0.01 0.01 73 1017.9
20260510164017 81 326 2.0 2.0 0.00 0.01 0.01 75 1017.9
20260510163512 80 95 2.0 2.0 0.00 0.01 0.01 75 1017.9
20260510163009 80 53 1.0 5.0 0.00 0.01 0.01 79 1017.8
20260510162504 80 99 3.0 6.0 0.00 0.01 0.01 75 1017.9
20260510162001 82 119 3.0 6.0 0.00 0.01 0.01 73 1018.0
20260510161456 80 353 0.0 2.0 0.00 0.01 0.01 78 1017.9
20260510160953 81 28 2.0 3.0 0.00 0.01 0.01 75 1018.1
20260510160445 80 342 1.0 1.0 0.00 0.01 0.01 77 1018.0
20260510155943 79 356 0.0 2.0 0.00 0.01 0.01 79 1017.9
20260510155441 80 10 0.0 2.0 0.00 0.01 0.01 81 1017.7
20260510154937 78 356 0.0 2.0 0.00 0.01 0.01 82 1017.9
20260510154433 78 65 1.0 5.0 0.00 0.01 0.01 84 1017.9
20260510153931 78 11 0.0 3.0 0.00 0.01 0.01 85 1017.8
20260510153429 77 15 1.0 5.0 0.00 0.01 0.01 85 1017.8
20260510152925 77 115 4.0 6.0 0.00 0.01 0.01 85 1017.8
20260510152423 78 67 3.0 5.0 0.00 0.01 0.01 85 1017.9
20260510151919 78 92 3.0 3.0 0.00 0.01 0.01 85 1017.9
20260510151417 77 13 0.0 3.0 0.00 0.01 0.01 87 1017.9
20260510150912 77 78 2.0 5.0 0.00 0.01 0.01 88 1018.0
20260510150408 77 36 1.0 1.0 0.00 0.01 0.01 92 1017.7
20260510145905 77 25 2.0 3.0 0.00 0.01 0.01 89 1018.0
20260510145401 76 99 3.0 6.0 0.00 0.01 0.01 89 1018.1
20260510144857 76 23 1.0 1.0 0.00 0.01 0.01 93 1018.1
20260510144354 77 84 1.0 2.0 0.00 0.01 0.01 99 1017.9
20260510143849 75 351 1.0 2.0 0.00 0.01 0.01 99 1018.1
20260510143345 75 0 1.0 6.0 0.00 0.01 0.01 99 1018.0
20260510142843 74 26 0.0 1.0 0.00 0.01 0.01 99 1018.1
20260510142339 73 356 1.0 1.0 0.00 0.01 0.01 99 1018.2
20260510141836 73 33 1.0 2.0 0.00 0.01 0.01 99 1018.0
20260510141333 72 24 2.0 2.0 0.00 0.01 0.01 99 1018.0
20260510140830 71 9 1.0 1.0 0.00 0.01 0.01 99 1018.0
20260510140326 70 53 2.0 2.0 0.00 0.01 0.01 99 1018.0
20260510135819 70 74 1.0 2.0 0.00 0.01 0.01 99 1017.9
20260510135315 70 57 1.0 1.0 0.00 0.01 0.01 99 1017.9
20260510134813 69 56 1.0 3.0 0.00 0.01 0.01 99 1017.8
20260510134310 69 21 1.0 1.0 0.00 0.01 0.01 99 1018.0
20260510133806 69 45 1.0 2.0 0.00 0.01 0.01 99 1017.8
20260510133302 68 57 1.0 2.0 0.00 0.01 0.01 99 1017.8
20260510132757 68 15 0.0 1.0 0.00 0.01 0.01 99 1017.9
20260510132256 68 21 0.0 1.0 0.00 0.01 0.01 99 1017.8
20260510131752 68 48 2.0 2.0 0.00 0.01 0.01 99 1017.9
20260510131251 68 12 0.0 0.0 0.00 0.01 0.01 99 1017.9
20260510130746 69 10 0.0 1.0 0.00 0.01 0.01 99 1017.9
20260510130244 68 357 0.0 2.0 0.00 0.01 0.01 99 1017.6
20260510125740 68 16 0.0 1.0 0.00 0.01 0.01 99 1017.6
20260510125236 68 6 0.0 0.0 0.00 0.01 0.01 99 1017.6
20260510124733 68 11 0.0 1.0 0.00 0.01 0.01 99 1017.5
20260510124231 67 16 1.0 1.0 0.00 0.01 0.01 99 1017.4
20260510123725 67 25 3.0 3.0 0.00 0.01 0.01 99 1017.4
20260510123222 67 34 1.0 1.0 0.00 0.01 0.01 99 1017.2
20260510122718 67 6 0.0 1.0 0.00 0.01 0.01 99 1017.2
20260510122215 67 31 0.0 1.0 0.00 0.01 0.01 99 1017.0
20260510121711 67 9 0.0 0.0 0.00 0.01 0.01 99 1016.8
20260510121209 66 10 1.0 1.0 0.00 0.01 0.01 99 1016.8
20260510120705 66 353 1.0 1.0 0.00 0.01 0.01 99 1016.7
20260510120202 66 357 1.0 1.0 0.00 0.01 0.01 99 1016.6
20260510115657 66 14 0.0 0.0 0.00 0.01 0.01 99 1016.6
20260510115156 65 39 0.0 2.0 0.00 0.01 0.01 99 1016.3
20260510114651 66 17 0.0 1.0 0.00 0.01 0.01 99 1016.4
20260510114148 65 6 0.0 1.0 0.00 0.01 0.01 99 1016.3
20260510113643 65 8 0.0 0.0 0.00 0.01 0.01 99 1016.4
20260510113141 65 9 0.0 0.0 0.00 0.01 0.01 99 1016.2
20260510112637 65 11 0.0 0.0 0.00 0.01 0.01 99 1016.3
20260510112134 65 8 0.0 1.0 0.00 0.01 0.01 99 1016.1
20260510111630 65 12 0.0 1.0 0.00 0.01 0.01 99 1015.9
20260510111126 65 14 1.0 1.0 0.00 0.01 0.01 99 1016.1
20260510110622 65 36 1.0 1.0 0.00 0.01 0.01 99 1015.9
20260510110119 65 16 0.0 1.0 0.00 0.01 0.01 99 1015.8
20260510105615 65 53 1.0 1.0 0.00 0.01 0.01 99 1015.9
20260510105109 65 7 0.0 0.0 0.00 0.01 0.01 99 1015.9
20260510104606 65 11 0.0 0.0 0.00 0.01 0.01 99 1015.6
20260510104103 65 5 0.0 0.0 0.00 0.01 0.01 99 1015.7
20260510103600 65 6 0.0 0.0 0.00 0.01 0.01 99 1015.6
20260510103056 65 4 0.0 0.0 0.00 0.01 0.01 99 1015.4
20260510102551 65 6 0.0 0.0 0.00 0.01 0.01 99 1015.3
20260510102047 65 6 0.0 0.0 0.00 0.01 0.01 99 1015.4
20260510101545 66 6 0.0 0.0 0.00 0.01 0.01 99 1015.5
20260510101044 66 6 0.0 0.0 0.00 0.01 0.01 99 1015.4
20260510100539 66 15 0.0 0.0 0.00 0.01 0.01 99 1015.3
20260510100037 66 22 0.0 1.0 0.00 0.01 0.01 99 1015.1
20260510095533 66 19 0.0 1.0 0.07 0.01 0.01 99 1015.2
20260510095032 66 25 1.0 2.0 0.07 0.01 0.01 99 1015.2
20260510094527 66 32 1.0 1.0 0.00 0.00 0.00 99 1015.0
20260510094023 66 65 2.0 2.0 0.00 0.00 0.00 99 1015.0
20260510093518 66 75 1.0 2.0 0.00 0.00 0.00 99 1014.9
20260510093016 66 22 1.0 1.0 0.00 0.00 0.00 99 1014.8
20260510092513 66 22 1.0 1.0 0.00 0.00 0.00 99 1014.6
20260510092012 66 356 0.0 0.0 0.00 0.00 0.00 99 1014.7
20260510091509 66 356 0.0 0.0 0.00 0.00 0.00 99 1014.6
20260510091005 66 7 0.0 1.0 0.00 0.00 0.00 99 1014.7
20260510090503 66 1 0.0 1.0 0.00 0.00 0.00 99 1014.6
20260510085957 66 0 0.0 0.0 0.00 0.00 0.00 99 1014.7
20260510085453 66 0 0.0 0.0 0.00 0.00 0.00 99 1014.7
20260510084949 66 0 0.0 0.0 0.00 0.00 0.00 99 1014.5
20260510084446 67 357 0.0 2.0 0.00 0.00 0.00 99 1014.7
20260510083942 67 356 0.0 0.0 0.00 0.00 0.00 99 1014.5
20260510083439 67 0 0.0 0.0 0.00 0.00 0.00 99 1014.4
20260510082934 66 358 0.0 0.0 0.00 0.00 0.00 99 1014.5
20260510082433 66 346 0.0 2.0 0.00 0.00 0.00 99 1014.5
20260510081931 66 345 1.0 1.0 0.00 0.00 0.00 99 1014.3
20260510081427 66 354 0.0 0.0 0.00 0.00 0.00 99 1014.1
20260510080924 66 352 1.0 1.0 0.00 0.00 0.00 99 1014.2
20260510080423 66 340 1.0 2.0 0.00 0.00 0.00 99 1014.0
20260510075920 67 5 0.0 0.0 0.00 0.00 0.00 99 1013.9
20260510075418 67 25 1.0 1.0 0.00 0.00 0.00 99 1013.8
20260510074914 67 30 1.0 1.0 0.00 0.00 0.00 99 1013.9
20260510074412 67 6 0.0 1.0 0.00 0.00 0.00 99 1013.9
20260510073908 67 5 0.0 0.0 0.00 0.00 0.00 99 1013.9
20260510073403 67 14 0.0 1.0 0.00 0.00 0.00 99 1013.9
20260510072900 67 3 0.0 2.0 0.00 0.00 0.00 99 1014.0
20260510072357 67 88 3.0 3.0 0.00 0.00 0.00 99 1013.7
20260510071852 67 13 0.0 1.0 0.00 0.00 0.00 99 1013.8
20260510071349 67 22 1.0 1.0 0.00 0.00 0.00 99 1013.9
20260510070848 67 1 0.0 0.0 0.00 0.00 0.00 99 1013.8
20260510070345 67 4 0.0 2.0 0.00 0.00 0.00 99 1013.7
20260510065844 67 56 1.0 1.0 0.00 0.00 0.00 99 1013.7
20260510065341 67 23 0.0 2.0 0.00 0.00 0.00 99 1013.7
20260510064838 67 95 3.0 3.0 0.00 0.00 0.00 99 1013.8
20260510064336 67 57 1.0 3.0 0.00 0.00 0.00 99 1013.7
20260510063832 67 111 2.0 3.0 0.00 0.00 0.00 99 1013.7
20260510063329 67 114 4.0 5.0 0.00 0.00 0.00 99 1013.6
20260510062825 67 110 3.0 3.0 0.00 0.00 0.00 99 1014.0
20260510062321 67 26 1.0 2.0 0.00 0.00 0.00 99 1014.1
20260510061816 67 19 0.0 1.0 0.00 0.00 0.00 99 1014.1
20260510061314 67 25 1.0 1.0 0.00 0.00 0.00 99 1014.0
20260510060809 67 24 0.0 1.0 0.00 0.00 0.00 99 1014.5
20260510060307 67 15 0.0 1.0 0.00 0.00 0.00 99 1014.3
20260510055803 67 2 0.0 0.0 0.00 0.00 0.00 99 1014.6
20260510055306 67 2 0.0 0.0 0.00 0.00 0.00 99 1014.5
20260510054801 67 18 1.0 1.0 0.00 0.00 0.00 99 1014.5
20260510054257 67 12 1.0 1.0 0.00 0.00 0.00 99 1014.5
20260510053752 66 359 0.0 0.0 0.00 0.00 0.00 99 1014.6
20260510053248 67 354 0.0 1.0 0.00 0.00 0.00 99 1014.7
20260510052744 67 355 0.0 0.0 0.00 0.00 0.00 99 1014.7
20260510052240 67 356 0.0 1.0 0.00 0.00 0.00 99 1014.7
20260510051736 67 348 0.0 0.0 0.00 0.00 0.00 99 1014.8
20260510051233 67 348 0.0 0.0 0.00 0.00 0.00 99 1014.8
20260510050730 68 350 0.0 0.0 0.00 0.00 0.00 99 1014.7
20260510050227 68 353 0.0 0.0 0.00 0.00 0.00 99 1014.9
20260510045724 68 351 0.0 0.0 0.00 0.59 0.59 99 1014.5
20260510045221 68 344 0.0 1.0 0.00 0.59 0.59 99 1014.7
20260510044717 68 348 0.0 0.0 0.00 0.59 0.59 99 1014.5
20260510044215 68 352 0.0 1.0 0.00 0.59 0.59 99 1014.6
20260510043709 68 48 2.0 2.0 0.00 0.59 0.59 99 1014.2
20260510043207 68 67 3.0 5.0 0.00 0.59 0.59 99 1014.2
20260510042704 68 4 0.0 1.0 0.00 0.59 0.59 99 1014.7
20260510042200 68 10 1.0 1.0 0.00 0.59 0.59 99 1014.9
20260510041657 68 28 1.0 1.0 0.00 0.59 0.59 99 1015.1
20260510041154 68 358 0.0 0.0 0.00 0.59 0.59 99 1015.0
20260510040651 68 2 0.0 0.0 0.00 0.59 0.59 99 1015.1
20260510040148 68 0 0.0 0.0 0.00 0.59 0.59 99 1015.1
20260510035643 68 0 0.0 0.0 0.00 0.59 0.59 99 1015.2
20260510035139 69 19 1.0 1.0 0.00 0.59 0.59 99 1015.1
20260510034636 68 11 0.0 0.0 0.00 0.59 0.59 99 1015.3
20260510034133 69 8 0.0 1.0 0.00 0.59 0.59 99 1015.2
20260510033629 69 354 0.0 0.0 0.00 0.59 0.59 99 1015.2
20260510033127 69 356 0.0 0.0 0.00 0.59 0.59 99 1015.3
20260510032623 69 8 0.0 0.0 0.00 0.59 0.59 99 1015.1
20260510032119 69 27 1.0 1.0 0.00 0.59 0.59 99 1015.1
20260510031614 69 46 1.0 2.0 0.00 0.59 0.59 99 1015.0
20260510031111 69 20 0.0 1.0 0.00 0.59 0.59 99 1015.1
20260510030605 68 351 0.0 0.0 0.00 0.59 0.59 99 1014.9
20260510030103 68 355 0.0 0.0 0.00 0.59 0.59 99 1014.9
20260510025600 68 348 0.0 1.0 0.05 0.59 0.59 99 1014.7
20260510025058 69 333 1.0 2.0 0.05 0.59 0.59 99 1014.7
20260510024554 69 341 0.0 1.0 0.00 0.58 0.58 99 1014.7
20260510024050 68 0 0.0 0.0 0.00 0.58 0.58 99 1014.4
20260510023547 68 3 0.0 0.0 0.00 0.58 0.58 99 1014.4
20260510023044 68 1 0.0 0.0 0.00 0.58 0.58 99 1014.3
20260510022543 68 358 0.0 0.0 0.00 0.58 0.58 99 1014.6
20260510022038 68 1 0.0 1.0 0.00 0.58 0.58 99 1014.3
20260510021535 69 15 1.0 3.0 0.00 0.58 0.58 99 1014.4
20260510021033 69 356 0.0 1.0 0.00 0.58 0.58 99 1014.6
20260510020526 69 356 0.0 0.0 0.00 0.58 0.58 99 1014.7
20260510020022 69 357 0.0 0.0 0.00 0.58 0.58 99 1014.6
20260510015518 69 33 1.0 3.0 0.00 0.58 0.58 99 1014.6
20260510015014 69 67 3.0 3.0 0.00 0.58 0.58 99 1014.3
20260510014511 69 83 2.0 2.0 0.00 0.58 0.58 99 1014.3
20260510014008 69 86 2.0 3.0 0.00 0.58 0.58 99 1014.2
20260510013503 69 91 2.0 3.0 0.00 0.58 0.58 99 1014.5
20260510012959 69 97 2.0 2.0 0.00 0.58 0.58 99 1014.6
20260510012453 69 119 3.0 3.0 0.00 0.58 0.58 99 1014.6
20260510011948 69 113 3.0 3.0 0.00 0.58 0.58 99 1014.6
20260510011443 69 119 2.0 2.0 0.00 0.58 0.58 99 1014.6
20260510010940 69 57 2.0 2.0 0.00 0.58 0.58 99 1014.9
20260510010437 69 47 2.0 2.0 0.00 0.58 0.58 99 1014.8
20260510005934 69 30 1.0 1.0 0.07 0.58 0.58 99 1014.7
20260510005430 69 26 0.0 1.0 0.07 0.58 0.58 99 1014.8
20260510004927 69 6 1.0 1.0 0.00 0.57 0.57 99 1014.7
20260510004424 69 344 0.0 2.0 0.00 0.57 0.57 99 1015.0
20260510003923 69 357 0.0 0.0 0.00 0.57 0.57 99 1014.6
20260510003419 69 350 1.0 1.0 0.00 0.57 0.57 99 1014.8
20260510002918 69 345 0.0 2.0 0.00 0.57 0.57 99 1014.5
20260510002416 69 329 1.0 5.0 0.00 0.57 0.57 99 1014.2
20260510001912 69 4 1.0 2.0 0.00 0.57 0.57 99 1013.5
20260510001410 69 18 1.0 2.0 0.00 0.57 0.57 99 1013.5
20260510000906 69 16 0.0 1.0 0.00 0.57 0.57 99 1013.3
20260510000404 69 353 0.0 2.0 0.00 0.57 0.57 99 1013.7
20260509235859 69 318 4.0 8.0 0.00 0.57 0.57 99 1013.8
20260509235356 69 12 1.0 8.0 0.00 0.57 0.57 99 1013.1
20260509234852 69 130 4.0 10.0 0.00 0.57 0.57 99 1012.9
20260509234350 69 135 7.0 13.0 0.00 0.57 0.57 99 1012.4
20260509233848 69 144 8.0 11.0 0.05 0.57 0.57 99 1012.6
20260509233345 69 114 7.0 10.0 0.05 0.57 0.57 99 1012.9
20260509232840 69 135 6.0 7.0 0.00 0.56 0.56 99 1013.1
20260509232339 70 122 5.0 6.0 0.00 0.56 0.56 99 1013.2
20260509231834 70 100 2.0 3.0 0.00 0.56 0.56 99 1013.6
20260509231332 70 121 2.0 3.0 0.07 0.56 0.56 99 1013.5
20260509230829 70 65 1.0 2.0 0.07 0.56 0.56 99 1013.5
20260509230326 70 101 2.0 3.0 0.00 0.55 0.55 99 1013.5
20260509225821 70 53 1.0 2.0 0.00 0.55 0.55 99 1013.9
20260509225318 70 6 0.0 1.0 0.00 0.55 0.55 99 1013.9
20260509224814 71 30 0.0 1.0 0.00 0.55 0.55 99 1013.8
20260509224311 71 24 1.0 2.0 0.00 0.55 0.55 99 1014.0
20260509223807 71 356 0.0 0.0 0.00 0.55 0.55 99 1013.9
20260509223304 71 356 0.0 0.0 0.07 0.55 0.55 99 1013.9
20260509222801 71 356 0.0 0.0 0.07 0.55 0.55 99 1013.8
20260509222256 71 53 1.0 2.0 0.00 0.54 0.54 98 1013.6
20260509221753 71 10 0.0 0.0 0.00 0.54 0.54 98 1013.6
20260509221249 71 1 0.0 0.0 0.00 0.54 0.54 98 1013.6
20260509220745 71 349 0.0 0.0 0.00 0.54 0.54 98 1013.2
20260509220242 71 349 0.0 0.0 0.00 0.54 0.54 98 1013.3
20260509215737 71 349 0.0 1.0 0.05 0.54 0.54 98 1013.6
20260509215234 71 0 0.0 0.0 0.05 0.54 0.54 98 1013.6
20260509214731 71 358 1.0 2.0 0.00 0.53 0.53 97 1013.9
20260509214228 71 350 1.0 2.0 0.00 0.53 0.53 97 1013.5
20260509213725 71 31 1.0 1.0 0.00 0.53 0.53 97 1013.3
20260509213220 71 9 0.0 1.0 0.00 0.53 0.53 97 1013.3
20260509212718 71 155 4.0 5.0 0.00 0.53 0.53 97 1012.9
20260509212215 71 64 2.0 2.0 0.00 0.53 0.53 96 1013.2
20260509211711 71 138 3.0 5.0 0.00 0.53 0.53 96 1013.2
20260509211208 71 118 2.0 3.0 0.00 0.53 0.53 94 1013.4
20260509210704 71 68 1.0 2.0 0.00 0.53 0.53 95 1013.6
20260509210202 72 84 3.0 3.0 0.00 0.53 0.53 95 1013.1
20260509205702 72 352 0.0 2.0 0.00 0.53 0.53 96 1013.8
20260509205201 72 349 0.0 1.0 0.00 0.53 0.53 96 1013.6
20260509204657 71 349 1.0 1.0 0.00 0.53 0.53 96 1013.6
20260509204154 71 342 1.0 1.0 0.00 0.53 0.53 96 1013.7
20260509203650 71 346 1.0 2.0 0.00 0.53 0.53 96 1013.8
20260509203148 71 349 1.0 1.0 0.00 0.53 0.53 95 1013.6
20260509202643 71 346 1.0 2.0 0.00 0.53 0.53 95 1013.3
20260509202138 72 348 1.0 2.0 0.00 0.53 0.53 94 1013.0
20260509201634 72 329 4.0 5.0 0.00 0.53 0.53 93 1013.2
20260509201132 72 357 0.0 3.0 0.00 0.53 0.53 93 1013.2
20260509200627 72 15 2.0 5.0 0.00 0.53 0.53 93 1012.2
20260509200123 72 346 0.0 1.0 0.00 0.53 0.53 94 1012.2
20260509195619 71 41 1.0 3.0 0.00 0.53 0.53 94 1011.9
20260509195114 71 89 2.0 7.0 0.00 0.53 0.53 94 1011.6
20260509194613 71 124 6.0 8.0 0.00 0.53 0.53 93 1011.0
20260509194111 71 132 4.0 7.0 0.00 0.53 0.53 92 1011.3
20260509193607 71 26 0.0 2.0 0.00 0.53 0.53 92 1011.7
20260509193103 72 126 4.0 6.0 0.00 0.53 0.53 92 1011.3